Regional Weather Roundup
Issued by NWS

Home | Current Version | Previous Version | Text Only | Print | Product List | Glossary On
Versions: 1 2 3 4 5 6 7 8 9 10 11 12 13 14 15 16 17 18 19 20 21 22 23 24 25 26 27 28 29 30 31 32 33 34 35 36 37 38 39 40 41 42 43 44 45 46 47 48 49 50
000
ASUS43 KMKX 210920
RWRWI

WISCONSIN REGIONAL WEATHER ROUNDUP
NATIONAL WEATHER SERVICE MILWAUKEE/SULLIVAN WI
400 AM CDT SAT APR 21 2018

NOTE: "FAIR" INDICATES FEW OR NO CLOUDS BELOW 12,000 FEET WITH NO
SIGNIFICANT WEATHER AND/OR OBSTRUCTIONS TO VISIBILITY.

WIZ001-002-006>008-014>016-023>028-211000-
NORTHWEST WISCONSIN

CITY           SKY/WX    TMP DP  RH WIND       PRES   REMARKS
SUPERIOR ARPT  FAIR      31  20  65 SW6       30.41S WCI  25
ASHLAND        FAIR      26  21  81 S3        30.41S
HAYWARD        FAIR      27  22  81 CALM      30.41S
SIREN          FAIR      27  21  76 CALM      30.42S
CUMBERLAND     FAIR      28  21  74 CALM      30.41S
RICE LAKE      FAIR      28  25  88 CALM      30.43S
CHETEK         FAIR      28  24  84 CALM      30.42S
LADYSMITH      FAIR      30  22  72 CALM      30.43S
EAU CLAIRE     FAIR      30  24  78 CALM      30.41S
MENOMONIE      FAIR      33  27  79 CALM      30.43R
NEW RICHMOND   FAIR      31  27  85 CALM      30.42R
OSCEOLA        FAIR      31  27  85 CALM      30.45R
$$

WIZ003>005-009-010-017-018-211000-
NORTH CENTRAL WISCONSIN

CITY           SKY/WX    TMP DP  RH WIND       PRES   REMARKS
MANITOWISH WTR FAIR      26  21  82 CALM      30.40S
ARBOR VITAE    FAIR      29  20  69 CALM      30.40S
WOODRUFF       FAIR      29  20  69 CALM      30.40S
RHINELANDER    FAIR      29  17  61 CALM      30.41R
EAGLE RIVER    FAIR      28  20  71 CALM      30.40R
LAND O LAKES   FAIR      26  20  79 CALM      30.41S
PHILLIPS       FAIR      25  22  87 CALM      30.40F
TOMAHAWK       FAIR      25  18  74 CALM      30.42R
MEDFORD        FAIR      27  22  79 CALM      30.40S
MERRILL        FAIR      25  22  86 CALM      30.43R
$$

WIZ029-030-035-036-043>047-211000-
CENTRAL WISCONSIN

CITY           SKY/WX    TMP DP  RH WIND       PRES   REMARKS
WAUSAU         FAIR      28  21  75 CALM      30.40S
MOSINEE        FAIR      30  19  64 SE3       30.42S
MARSHFIELD     FAIR      33  24  69 CALM      30.39S
STEVENS POINT  FAIR      25  20  82 CALM      30.42F
WAUPACA        FAIR      32  24  74 CALM      30.43F
WAUTOMA        FAIR      28  25  88 CALM      30.44S
WISC RAPIDS    FAIR      30  18  60 CALM      30.42F
CAMP DOUGLAS   FAIR      28  24  86 CALM      30.41F
$$

WIZ011>013-019>022-031-037>040-048>050-211000-
NORTHEAST WISCONSIN

CITY           SKY/WX    TMP DP  RH WIND       PRES   REMARKS
ANTIGO         FAIR      28  24  87 CALM      30.42S
SHAWANO        FAIR      29  23  76 CALM      30.43R
OCONTO         FAIR      26  19  75 CALM      30.43S
STURGEON BAY   FAIR      39  19  44 W6        30.44R WCI  35
GREEN BAY      FAIR      29  24  82 CALM      30.43S
MANITOWOC      FAIR      29  26  89 CALM      30.45R
APPLETON       FAIR      36  18  48 CALM      30.42S
CLINTONVILLE   FAIR      27  19  73 CALM      30.43S
OSHKOSH        FAIR      33  23  66 CALM      30.43S
$$

WIZ032>034-041-042-053>061-211000-
SOUTHWEST WISCONSIN

CITY           SKY/WX    TMP DP  RH WIND       PRES   REMARKS
LA CROSSE      FAIR      37  28  70 CALM      30.42S
SPARTA         FAIR      27  23  85 CALM      30.43S
VIROQUA        FAIR      39  24  53 E6        30.40S WCI  35
BOSCOBEL       FAIR      34  30  85 CALM      30.43R
PRAIRIE DU CHI CLOUDY    37  31  78 E3        30.41F
PLATTEVILLE    CLOUDY    41  31  66 E7        30.41F
$$

WIZ056-057-062-063-064-067-068-211000-
SOUTH CENTRAL WISCONSIN

CITY           SKY/WX    TMP DP  RH WIND       PRES   REMARKS
REEDSBURG      FAIR      30  28  89 CALM      30.43S
BARABOO/DELLS  FAIR      30  21  69 CALM      30.42S
LONE ROCK      FAIR      33  30  88 CALM      30.44R
MINERAL POINT  FAIR      43  25  49 SE5       30.41F
MADISON        FAIR      33  25  72 CALM      30.43S
MIDDLETON      FAIR      33  31  89 CALM      30.43S
WATERTOWN      FAIR      28  24  83 CALM      30.44R
MONROE         FAIR      43  19  39 SE5       30.42R
JANESVILLE     FAIR      34  30  86 CALM      30.43R
$$

WIZ051-052-058>065-066-070>072-211000-
SOUTHEAST WISCONSIN

CITY           SKY/WX    TMP DP  RH WIND       PRES   REMARKS
MILWAUKEE      FAIR      33  22  63 CALM      30.44R
WAUKESHA       FAIR      30  23  74 CALM      30.45S
MILWAUKEE/TIMM FAIR      32  23  69 CALM      30.44S
RACINE         FAIR      33  23  66 CALM      30.45S
BURLINGTON     FAIR      29  24  84 CALM      30.44R
KENOSHA        FAIR      34  22  61 CALM      30.44S
FOND DU LAC    FAIR      30  23  75 CALM      30.43S
SHEBOYGAN      FAIR      30  28  92 CALM      30.44R
WEST BEND      FAIR      28  27  93 CALM      30.44R
JUNEAU         FAIR      34  24  66 CALM      30.44S
$$

LSZ147-162-211000-
LAKE SUPERIOR

STATION/POSITION TIME  TEMP    WIND        PRES    WAVE
                       AIR SEA DIR/SP/G            HT/PER
                 (UTC) (F)     (DEG/KT/KT) (MB)    (FT/S)
DEVILS ISLAND    0900   38     240/ 11/ 12 1030.1S
SAXON HARBOR     0840   29     200/  4/  6 1029.1R
$$

LMZ867-665-643>646-211000-
LAKE MICHIGAN

STATION/POSITION TIME  TEMP    WIND        PRES    WAVE
                       AIR SEA DIR/SP/G            HT/PER
                 (UTC) (F)     (DEG/KT/KT) (MB)    (FT/S)
NORTHPORT PIER   0840   35                 1029.5S
KEWAUNEE LAKESHO 0854   29     300/  2/  3 1029.8R
SHEBOYGAN LAKESH 0900   39     210/  3/  3 1031.3R
PORT WASHINGTON  0840   33     250/  2/  3 1031.8R
MILWAUKEE LAKESH 0900   40      50/  2/  2   N/A
KENOSHA   LAKESH 0900   36                 1030.8
$$

TC  - TEMPERATURE IN CELSIUS
VSB - VISIBILITY IN STATUTE MILES
WCI - WIND CHILL INDEX
HX  - HEAT INDEX




USA.gov is the U.S. government's official web portal to all federal, state and local government web resources and services.